[[{"header":{"parameterUnit":"m.s-1","parameterCategory":1,"la1":30.2991,"la2":30.254,"lo1":-89.0895,"lo2":-89.0444,"dy":0.0017,"dx":0.0017,"nx":28,"ny":28,"refTime":"2025-12-12T09:00:00:Z","depth":0,"parameterNumber":2,"parameterNumberName":"U-component_of_WINDS"},"data":[0,0,0,0,0,0,0,0,0,0,0,0,0,0,0,0,0,0,0,0,0,0,0,0,0,0,0,0,0,0,0,0,0,0,0,0,0,0,0,0,0,0,0,0,0,0,0,0,0,0,0,0,0,0,0,0,0,0,-2.1488,-2.1489,0,-2.1508,-2.1508,-2.1508,-2.1457,-2.1456,-2.1454,-2.1453,-2.1472,-2.1474,-2.1476,0,0,0,0,0,0,0,0,0,0,0,0,0,-2.1408,-2.141,-2.1488,-2.1489,-2.1489,-2.1508,-2.1508,-2.1508,-2.1458,-2.1456,-2.1454,-2.1452,-2.1472,-2.1474,-2.1477,0,0,0,0,0,0,0,0,0,0,0,0,0,-2.1437,-2.1411,-2.1488,-2.1466,-2.1464,-2.1507,-2.1508,-2.1508,-2.1458,-2.1456,-2.1453,-2.1451,-2.1471,-2.1474,-2.1477,-2.1543,0,0,-2.1486,-2.1487,0,0,0,0,0,0,0,0,-2.1435,-2.144,-2.1469,-2.1468,-2.1466,-2.1478,-2.1487,-2.152,-2.1459,-2.146,-2.1453,-2.145,-2.1476,-2.1479,-2.1487,-2.1544,-2.1545,-2.1486,-2.1488,-2.1489,-2.149,0,0,0,0,0,0,0,-2.1433,-2.1439,-2.1496,-2.147,-2.1467,-2.1455,-2.1456,-2.1493,-2.1481,-2.146,-2.1456,-2.1459,-2.1475,-2.1485,-2.1487,-2.1545,-2.1486,-2.1489,-2.1491,-2.1492,-2.1657,-2.1659,0,0,0,0,0,0,-2.1434,-2.1437,-2.1495,-2.1497,-2.1444,-2.1458,-2.146,-2.1476,-2.1481,-2.1479,-2.1461,-2.1457,-2.1481,-2.1484,-2.1488,-2.1566,-2.1489,-2.1492,-2.1494,-2.1654,-2.1657,-2.166,0,0,0,0,0,0,-2.1433,-2.144,-2.1495,-2.1466,-2.1472,-2.1462,-2.1481,-2.1478,-2.1488,-2.1482,-2.1479,-2.1474,-2.1479,-2.1484,-2.153,-2.1566,-2.1494,-2.1496,-2.1651,-2.1655,-2.1659,-2.1722,0,0,0,0,0,0,-2.1431,-2.144,-2.1465,-2.1467,-2.1474,-2.1536,-2.1483,-2.148,-2.1493,-2.1487,-2.1493,-2.1491,-2.1477,-2.1525,-2.1533,-2.1569,-2.1499,-2.1648,-2.1653,-2.1658,-2.1717,-2.1728,-2.1737,0,0,0,0,0,-2.1428,-2.1482,-2.1466,-2.1473,-2.1505,-2.1538,-2.1542,-2.1525,-2.1496,-2.1521,-2.1517,-2.1491,-2.1561,-2.1531,-2.1538,-2.1576,-2.1646,-2.1652,-2.1657,-2.1712,-2.1726,-2.1737,0,0,0,0,0,0,-2.1484,-2.1481,-2.1464,-2.152,-2.153,-2.153,-2.1561,-2.154,-2.1558,-2.1552,-2.153,-2.1532,-2.1582,-2.1583,-2.155,-2.164,-2.1598,-2.1606,-2.1637,-2.165,-2.166,-2.1659,-2.1501,0,0,0,0,0,-2.1503,-2.153,-2.1526,-2.1576,-2.1582,-2.1571,-2.1585,-2.1571,-2.158,-2.1584,-2.1583,-2.1593,-2.1617,-2.1633,-2.1655,-2.1717,-2.1717,-2.1746,-2.1756,-2.1765,-2.1772,-2.1805,-2.1818,-2.1679,-2.1679,-2.1679,0,0,-2.1542,-2.1544,-2.1563,-2.1588,-2.1593,-2.1622,-2.1574,-2.1607,-2.1629,-2.1589,-2.1632,-2.1632,-2.1642,-2.1696,-2.172,-2.1699,-2.181,-2.1772,-2.1779,-2.1781,-2.1812,-2.1825,-2.1837,-2.1683,-2.1682,-2.1682,0,0,-2.1628,-2.1632,-2.1674,-2.1681,-2.1691,-2.1683,-2.1693,-2.1696,-2.1695,-2.1738,-2.1709,-2.1734,-2.1776,-2.1784,-2.1794,-2.1883,-2.186,-2.1891,-2.1944,-2.1977,-2.1988,-2.1997,-2.203,-2.2042,-2.1898,-2.1898,-2.1898,0,-2.1676,-2.1718,-2.1699,-2.1734,-2.1746,-2.1711,-2.1753,-2.1761,-2.1777,-2.1786,-2.1762,-2.1814,-2.1818,-2.1874,-2.1896,-2.1905,-2.1916,-2.1891,-2.1988,-2.1997,-2.2006,-2.2037,-2.2049,-2.1902,-2.1901,-2.1901,-2.1901,0,-2.1777,-2.1807,-2.1839,-2.1856,-2.1872,-2.191,-2.1897,-2.1915,-2.19,-2.1895,-2.1939,-2.1943,-2.1965,-2.1977,-2.1962,-2.2031,-2.2018,-2.1991,-2.1949,-2.2023,-2.2052,-2.2063,-2.1907,-2.1906,-2.1905,-2.1904,0,0,-2.1899,-2.1904,-2.1917,-2.1924,-2.1932,-2.1955,-2.1992,-2.2014,-2.203,-2.2042,-2.2073,-2.2109,-2.2085,-2.2096,-2.2082,-2.211,-2.2182,-2.208,-2.208,-2.21,-2.2259,-2.2279,-2.2293,-2.2166,-2.2169,-2.217,-2.2258,0,-2.1985,-2.2049,-2.2032,-2.2096,-2.2123,-2.2091,-2.2123,-2.2131,-2.2128,-2.2151,-2.2146,-2.2173,-2.2138,-2.2144,-2.2171,-2.2168,-2.2214,-2.2161,-2.2195,-2.2197,-2.2195,-2.2308,-2.233,-2.2413,-2.2269,-2.2271,-2.2272,0,-2.2093,-2.211,-2.2177,-2.218,-2.2191,-2.2221,-2.2239,-2.2262,-2.2271,-2.2266,-2.2278,-2.2259,-2.2296,-2.2253,-2.2303,-2.2268,-2.2281,-2.2282,-2.2284,-2.2287,-2.224,-2.2315,-2.2439,-2.2452,-2.229,-2.2288,-2.2287,0,-2.2177,-2.2216,-2.2261,-2.2268,-2.2273,-2.2295,-2.2298,-2.2304,-2.2319,-2.2335,-2.2344,-2.2365,-2.2376,-2.2392,-2.2379,-2.2349,-2.2432,-2.2388,-2.243,-2.243,-2.245,-2.2449,-2.2578,-2.2457,-2.2457,-2.2456,-2.2456,0,-2.2275,-2.2317,-2.2298,-2.2326,-2.2373,-2.2353,-2.24,-2.2399,-2.2405,-2.2432,-2.2405,-2.2431,-2.2411,-2.2436,-2.2425,-2.247,-2.2475,-2.2472,-2.2469,-2.2475,-2.2476,-2.2484,-2.2478,-2.246,-2.2459,-2.2458,-2.2458,0,-2.2376,-2.2366,-2.2413,-2.2414,-2.2415,-2.2449,-2.245,-2.2476,-2.247,-2.2505,-2.2512,-2.2503,-2.253,-2.2518,-2.2547,-2.254,-2.2597,-2.2586,-2.2594,-2.2592,-2.2635,-2.2631,-2.2774,-2.2792,-2.2659,-2.266,-2.2661,0,-2.244,-2.2472,-2.2476,-2.2493,-2.2498,-2.2524,-2.2538,-2.2521,-2.2537,-2.255,-2.2574,-2.2599,-2.2618,-2.2664,-2.266,-2.2682,-2.2672,-2.272,-2.2675,-2.268,-2.2674,-2.2672,-2.2676,-2.273,-2.2731,-2.2733,-2.2734,0,-2.2555,-2.2548,-2.2569,-2.259,-2.2608,-2.2623,-2.2635,-2.265,-2.2633,-2.2652,-2.268,-2.2695,-2.2725,-2.275,-2.277,-2.2773,-2.2751,-2.2748,-2.2759,-2.2766,-2.277,-2.2769,-2.262,-2.2745,-2.2744,-2.2743,-2.2742,-2.2742,-2.264,-2.2666,-2.2674,-2.2699,-2.2707,-2.2719,-2.2744,-2.2741,-2.2764,-2.2787,-2.2774,-2.2807,-2.2816,-2.284,-2.2846,-2.2872,-2.2852,-2.2868,-2.2872,-2.2877,-2.2883,-2.2765,-2.2875,-2.2874,-2.2874,-2.2874,-2.2874,0,-2.2753,-2.2756,-2.278,-2.2799,-2.2819,-2.2796,-2.2808,-2.2827,-2.2856,-2.2866,-2.2885,-2.2917,-2.2942,-2.294,-2.2963,-2.2984,-2.2974,-2.2991,-2.2989,-2.2991,-2.2898,-2.2887,-2.2998,-2.2998,-2.2998,-2.2998,-2.2998,-2.2998,-2.2815,-2.2859,-2.2853,-2.2902,-2.2904,-2.2936,-2.2946,-2.2957,-2.2965,-2.3002,-2.3023,-2.3021,-2.3026,-2.3049,-2.3071,-2.307,-2.308,-2.31,-2.3095,-2.3009,-2.2997,-2.2985,-2.2975,-2.3102,-2.3102,-2.3186,-2.3187,-2.3187]},{"header":{"parameterUnit":"m.s-1","parameterCategory":1,"la1":30.2991,"la2":30.254,"lo1":-89.0895,"lo2":-89.0444,"dy":0.0017,"dx":0.0017,"nx":28,"ny":28,"refTime":"2025-12-12T09:00:00:Z","depth":0,"parameterNumber":3,"parameterNumberName":"V-component_of_WINDS"},"data":[0,0,0,0,0,0,0,0,0,0,0,0,0,0,0,0,0,0,0,0,0,0,0,0,0,0,0,0,0,0,0,0,0,0,0,0,0,0,0,0,0,0,0,0,0,0,0,0,0,0,0,0,0,0,0,0,0,0,1.8837,1.8839,0,1.9006,1.9007,1.9009,1.9046,1.9045,1.9044,1.9043,1.9215,1.922,1.9226,0,0,0,0,0,0,0,0,0,0,0,0,0,1.8549,1.8554,1.8837,1.8839,1.8841,1.9005,1.9008,1.901,1.9047,1.9045,1.9044,1.9042,1.9213,1.922,1.9226,0,0,0,0,0,0,0,0,0,0,0,0,0,1.8691,1.8556,1.8837,1.8879,1.8885,1.9005,1.9008,1.901,1.9047,1.9045,1.9043,1.9042,1.9211,1.9219,1.9227,1.9317,0,0,1.9254,1.9257,0,0,0,0,0,0,0,0,1.8683,1.8702,1.8871,1.8877,1.8883,1.9003,1.8969,1.9113,1.9047,1.8985,1.9043,1.9041,1.9146,1.916,1.9195,1.9325,1.9332,1.9254,1.926,1.9263,1.9266,0,0,0,0,0,0,0,1.8673,1.8695,1.8904,1.8873,1.8881,1.8891,1.8909,1.8997,1.9074,1.8991,1.8994,1.9013,1.9149,1.9187,1.9199,1.9335,1.9254,1.9262,1.9267,1.927,1.9549,1.9551,0,0,0,0,0,0,1.8656,1.8686,1.8898,1.8909,1.8777,1.8897,1.8918,1.8966,1.9073,1.9087,1.9015,1.9014,1.9173,1.9189,1.9206,1.9319,1.9263,1.9271,1.9276,1.9547,1.955,1.9552,0,0,0,0,0,0,1.865,1.8675,1.8892,1.8799,1.8827,1.8904,1.8959,1.8971,1.9009,1.9091,1.9105,1.9039,1.9172,1.9194,1.929,1.9326,1.9275,1.9283,1.9544,1.9548,1.9551,1.9546,0,0,0,0,0,0,1.8641,1.8672,1.8706,1.8799,1.8832,1.8972,1.8961,1.8975,1.9024,1.9025,1.9118,1.9131,1.9172,1.9277,1.9298,1.9337,1.9289,1.9541,1.9546,1.955,1.9543,1.9549,1.9553,0,0,0,0,0,1.8631,1.8697,1.8708,1.8733,1.8876,1.8974,1.8993,1.9039,1.9026,1.9062,1.9115,1.9128,1.9318,1.9286,1.9311,1.9352,1.9539,1.9544,1.9549,1.9541,1.9547,1.9553,0,0,0,0,0,0,1.8606,1.871,1.8723,1.8821,1.8889,1.898,1.9026,1.9044,1.9116,1.9114,1.9168,1.9189,1.9282,1.9327,1.9289,1.9446,1.9428,1.9438,1.9413,1.942,1.9425,1.9413,1.9297,0,0,0,0,0,1.8612,1.8682,1.877,1.8848,1.8882,1.8948,1.8992,1.9022,1.9094,1.9123,1.9183,1.9252,1.9328,1.9376,1.945,1.955,1.9572,1.9591,1.9596,1.9599,1.9608,1.9666,1.9676,1.9569,1.9569,1.9569,0,0,1.8624,1.869,1.8731,1.8845,1.8901,1.8974,1.8972,1.9048,1.9103,1.9134,1.9229,1.9276,1.9357,1.9456,1.9502,1.9496,1.9643,1.9606,1.9608,1.9615,1.9673,1.9683,1.9692,1.9572,1.9572,1.9571,0,0,1.8686,1.8742,1.8815,1.8871,1.8956,1.9,1.9018,1.9107,1.914,1.9236,1.9262,1.9328,1.9456,1.9514,1.956,1.9646,1.9662,1.9669,1.9696,1.9752,1.9761,1.9768,1.9801,1.9812,1.9677,1.9677,1.9677,0,1.8691,1.8801,1.8849,1.8926,1.8976,1.9009,1.9084,1.9136,1.9241,1.9275,1.9266,1.943,1.9487,1.9601,1.9622,1.9657,1.968,1.9659,1.9755,1.9764,1.9772,1.9804,1.9815,1.9677,1.9677,1.9677,1.9677,0,1.8805,1.8881,1.893,1.9032,1.9087,1.9162,1.9223,1.9273,1.9299,1.9344,1.9443,1.9513,1.9603,1.9632,1.9657,1.975,1.9744,1.9744,1.9728,1.9782,1.9813,1.9825,1.9678,1.9677,1.9677,1.9677,0,0,1.8853,1.8982,1.9,1.9047,1.9145,1.9205,1.9283,1.9371,1.9414,1.9486,1.9553,1.9662,1.9665,1.9717,1.9749,1.9798,1.9865,1.9794,1.9797,1.9806,1.9975,1.9975,1.9988,1.9876,1.9878,1.988,1.9969,0,1.8928,1.9067,1.9114,1.923,1.9303,1.9336,1.9404,1.9472,1.9517,1.9586,1.9636,1.9713,1.9709,1.9741,1.9791,1.9846,1.99,1.984,1.994,1.9943,1.992,2.0004,2.0003,2.0083,1.9981,1.9983,1.9984,0,1.9032,1.9107,1.9231,1.9322,1.9354,1.9414,1.9501,1.9565,1.9643,1.9673,1.9733,1.9762,1.9846,1.9824,1.9941,1.99,1.9944,1.9977,1.9981,1.9993,1.9968,2.0019,2.0109,2.0121,2.0003,2.0002,2.0001,0,1.9058,1.9189,1.9281,1.932,1.9428,1.947,1.9517,1.9593,1.9644,1.972,1.9754,1.9838,1.9884,1.9949,2.0001,1.998,2.0114,2.0096,2.0142,2.0141,2.0169,2.0167,2.0269,2.0195,2.0195,2.0195,2.0195,0,1.9136,1.9211,1.9294,1.935,1.9436,1.949,1.9573,1.9622,1.969,1.9758,1.9791,1.9854,1.9918,1.9989,2.003,2.0122,2.0142,2.0169,2.018,2.0167,2.0164,2.0197,2.0194,2.0198,2.0197,2.0197,2.0196,0,1.9179,1.9237,1.934,1.9434,1.946,1.9519,1.96,1.9657,1.9704,1.979,1.9813,1.9887,1.9973,2.0031,2.0141,2.0168,2.0269,2.0277,2.0243,2.0248,2.0291,2.0287,2.0419,2.044,2.0351,2.0352,2.0352,0,1.9225,1.9284,1.9385,1.9433,1.9481,1.9557,1.961,1.9666,1.972,1.9815,1.9861,1.995,2.0024,2.016,2.0224,2.0309,2.032,2.0361,2.0333,2.032,2.0323,2.0319,2.0326,2.0365,2.0366,2.0366,2.0367,0,1.9302,1.9329,1.9404,1.9491,1.9553,1.9624,1.9694,1.9732,1.98,1.9859,1.9948,2.0006,2.0119,2.0207,2.0299,2.0348,2.037,2.0375,2.0391,2.0379,2.0357,2.0372,2.0256,2.0372,2.0371,2.0371,2.0371,2.0371,1.935,1.9404,1.9485,1.9569,1.9628,1.9694,1.9753,1.9809,1.9884,1.9981,2.001,2.0103,2.0182,2.0307,2.0358,2.0433,2.0429,2.045,2.0456,2.0461,2.0462,2.0345,2.0449,2.0449,2.0449,2.0449,2.0449,0,1.943,1.9484,1.956,1.9659,1.9725,1.9741,1.9821,1.9875,1.9957,2.0029,2.0102,2.0206,2.0292,2.0364,2.0453,2.0499,2.0512,2.0521,2.0519,2.053,2.0459,2.0438,2.051,2.051,2.051,2.051,2.051,2.051,1.9479,1.9574,1.961,1.9735,1.9789,1.9882,1.9926,1.9988,2.0046,2.0161,2.0233,2.028,2.0353,2.0448,2.0529,2.0548,2.058,2.0587,2.0609,2.0541,2.0535,2.0528,2.0508,2.0593,2.0594,2.0673,2.0674,2.0675]}]]